When you browse on this site, cookies collect data to enhance your experience and personalize the content and advertising you see.
Visit our Privacy Policy to learn more. By continuing to use the site, you agree to this use of cookies and data.
  • Em Portugal
  • Lista de países
  • Para 7 dias
  • Temperatura da água
  • Mapas de satélite
  • Mapa do tempo
  • Widgets de tempo
  • user-avatar
    Iniciar Sessão

    Previsão horária em Bihać

    Hoje, 19 Novembro, Segunda-feira

    Tempo Temperatura Precipitação Vento Pressão Humidade
    00:00 -2°C° 0 mm 3 m/s 706 mmHg 79%
    01:00 -2°C° 0 mm 2 m/s 706 mmHg 78%
    02:00 -4°C° 0 mm 3 m/s 706 mmHg 79%
    03:00 -4°C° 0 mm 3 m/s 705 mmHg 79%
    04:00 -4°C° 0 mm 3 m/s 705 mmHg 80%
    05:00 -4°C° 0 mm 3 m/s 705 mmHg 80%
    06:00 -4°C° 0 mm 3 m/s 705 mmHg 80%
    07:00 -4°C° 0 mm 3 m/s 705 mmHg 82%
    08:00 -2°C° 0 mm 3 m/s 705 mmHg 75%
    09:00 0°C° 0 mm 3 m/s 705 mmHg 68%
    10:00 +1°C° 0 mm 3 m/s 706 mmHg 62%
    11:00 +2°C° 0 mm 3 m/s 706 mmHg 59%
    12:00 +3°C° 0 mm 3 m/s 706 mmHg 57%
    13:00 +4°C° 0 mm 3 m/s 706 mmHg 55%
    14:00 +3°C° 0.1 mm 3 m/s 706 mmHg 60%
    15:00 +1°C° 0.1 mm 4 m/s 705 mmHg 64%
    16:00 +1°C° 0.1 mm 4 m/s 705 mmHg 69%
    17:00 0°C° 0.3 mm 4 m/s 705 mmHg 73%
    18:00 0°C° 0.3 mm 4 m/s 704 mmHg 77%
    19:00 -1°C° 0.3 mm 5 m/s 704 mmHg 81%
    20:00 -1°C° 1.4 mm 5 m/s 704 mmHg 83%
    21:00 -1°C° 1.4 mm 5 m/s 703 mmHg 85%
    22:00 -2°C° 1.4 mm 6 m/s 703 mmHg 87%
    23:00 -2°C° 2.8 mm 6 m/s 702 mmHg 89%

    Amanhã, 20 Novembro, Terça-feira

    Tempo Temperatura Precipitação Vento Pressão Humidade
    00:00 -1°C° 2.8 mm 6 m/s 702 mmHg 91%
    01:00 -1°C° 2.8 mm 6 m/s 701 mmHg 93%
    02:00 +1°C° 2.8 mm 5 m/s 701 mmHg 94%
    03:00 +1°C° 2.8 mm 5 m/s 700 mmHg 95%
    04:00 +1°C° 2.8 mm 5 m/s 700 mmHg 96%
    05:00 +1°C° 3.7 mm 5 m/s 700 mmHg 96%
    06:00 +2°C° 3.7 mm 5 m/s 700 mmHg 95%
    07:00 +3°C° 3.7 mm 4 m/s 700 mmHg 95%
    08:00 +4°C° 1.5 mm 4 m/s 701 mmHg 95%
    09:00 +5°C° 1.5 mm 3 m/s 701 mmHg 95%
    10:00 +7°C° 1.5 mm 3 m/s 702 mmHg 94%
    11:00 +7°C° 0.5 mm 2 m/s 702 mmHg 94%
    12:00 +8°C° 0.5 mm 2 m/s 702 mmHg 94%
    13:00 +8°C° 0.5 mm 2 m/s 703 mmHg 93%
    14:00 +7°C° 0.2 mm 2 m/s 703 mmHg 94%
    15:00 +7°C° 0.2 mm 2 m/s 703 mmHg 95%
    16:00 +8°C° 0.2 mm 1 m/s 703 mmHg 95%
    17:00 +6°C° 0.3 mm 2 m/s 703 mmHg 95%
    18:00 +6°C° 0.3 mm 2 m/s 703 mmHg 96%
    19:00 +5°C° 0.3 mm 2 m/s 704 mmHg 96%
    20:00 +5°C° 0.1 mm 2 m/s 704 mmHg 96%
    21:00 +5°C° 0.1 mm 2 m/s 704 mmHg 95%
    22:00 +5°C° 0.1 mm 2 m/s 704 mmHg 95%
    23:00 +5°C° 0.2 mm 2 m/s 705 mmHg 95%

    Depois de amanhã, 21 Novembro, Quarta-feira

    Tempo Temperatura Precipitação Vento Pressão Humidade
    00:00 +5°C° 0.2 mm 2 m/s 705 mmHg 95%
    01:00 +4°C° 0.2 mm 2 m/s 705 mmHg 95%
    02:00 +4°C° 0 mm 2 m/s 705 mmHg 95%
    03:00 +4°C° 0 mm 2 m/s 705 mmHg 94%
    04:00 +4°C° 0 mm 2 m/s 705 mmHg 94%
    05:00 +4°C° 0 mm 2 m/s 706 mmHg 94%
    06:00 +4°C° 0 mm 2 m/s 706 mmHg 94%
    07:00 +4°C° 0 mm 2 m/s 706 mmHg 93%
    08:00 +5°C° 0 mm 2 m/s 707 mmHg 92%
    09:00 +5°C° 0 mm 2 m/s 707 mmHg 92%
    10:00 +6°C° 0 mm 2 m/s 708 mmHg 91%
    11:00 +6°C° 0 mm 2 m/s 708 mmHg 90%
    12:00 +7°C° 0 mm 2 m/s 708 mmHg 88%
    13:00 +7°C° 0 mm 2 m/s 708 mmHg 87%
    14:00 +7°C° 0 mm 2 m/s 708 mmHg 89%
    15:00 +6°C° 0 mm 2 m/s 708 mmHg 90%
    16:00 +6°C° 0 mm 2 m/s 708 mmHg 92%
    17:00 +5°C° 0 mm 2 m/s 709 mmHg 93%
    18:00 +5°C° 0 mm 2 m/s 709 mmHg 93%
    19:00 +4°C° 0 mm 2 m/s 709 mmHg 94%
    20:00 +4°C° 0 mm 2 m/s 710 mmHg 94%
    21:00 +4°C° 0 mm 2 m/s 710 mmHg 94%
    22:00 +5°C° 0 mm 1 m/s 710 mmHg 94%
    23:00 +4°C° 0 mm 2 m/s 710 mmHg 94%

    22 Novembro, Quinta-feira

    Tempo Temperatura Precipitação Vento Pressão Humidade
    00:00 +4°C° 0 mm 2 m/s 710 mmHg 94%
    01:00 +4°C° 0 mm 2 m/s 710 mmHg 94%
    02:00 +5°C° 0 mm 1 m/s 710 mmHg 94%
    03:00 +5°C° 0 mm 1 m/s 710 mmHg 94%
    04:00 +5°C° 0 mm 1 m/s 710 mmHg 93%
    05:00 +4°C° 0 mm 1 m/s 710 mmHg 93%
    06:00 +4°C° 0 mm 1 m/s 711 mmHg 93%
    07:00 +4°C° 0 mm 1 m/s 711 mmHg 93%
    08:00 +5°C° 0 mm 1 m/s 711 mmHg 91%
    09:00 +6°C° 0 mm 1 m/s 712 mmHg 88%
    10:00 +8°C° 0 mm 1 m/s 712 mmHg 86%
    11:00 +8°C° 0 mm 1 m/s 712 mmHg 85%
    12:00 +9°C° 0 mm 1 m/s 712 mmHg 83%
    13:00 +10°C° 0 mm 1 m/s 712 mmHg 81%
    14:00 +9°C° 0 mm 1 m/s 712 mmHg 84%
    15:00 +8°C° 0 mm 1 m/s 712 mmHg 87%
    16:00 +7°C° 0 mm 1 m/s 712 mmHg 90%
    17:00 +7°C° 0 mm 1 m/s 713 mmHg 91%
    18:00 +6°C° 0 mm 1 m/s 713 mmHg 92%
    19:00 +6°C° 0 mm 1 m/s 713 mmHg 94%
    20:00 +6°C° 0 mm 1 m/s 713 mmHg 94%
    21:00 +5°C° 0 mm 1 m/s 714 mmHg 94%
    22:00 +5°C° 0 mm 1 m/s 714 mmHg 93%
    23:00 +5°C° 0 mm 1 m/s 714 mmHg 93%

    23 Novembro, Sexta-feira

    Tempo Temperatura Precipitação Vento Pressão Humidade
    00:00 +5°C° 0 mm 1 m/s 714 mmHg 93%
    01:00 +4°C° 0 mm 2 m/s 715 mmHg 93%
    02:00 +4°C° 0 mm 2 m/s 715 mmHg 93%
    03:00 +4°C° 0 mm 2 m/s 715 mmHg 93%
    04:00 +4°C° 0 mm 2 m/s 715 mmHg 93%
    05:00 +4°C° 0 mm 2 m/s 715 mmHg 93%
    06:00 +4°C° 0 mm 2 m/s 715 mmHg 93%
    07:00 +4°C° 0 mm 2 m/s 716 mmHg 93%
    08:00 +5°C° 0 mm 2 m/s 716 mmHg 91%
    09:00 +7°C° 0 mm 1 m/s 717 mmHg 88%
    10:00 +8°C° 0 mm 1 m/s 717 mmHg 86%
    11:00 +8°C° 0 mm 1 m/s 717 mmHg 84%
    12:00 +9°C° 0 mm 1 m/s 717 mmHg 81%
    13:00 +10°C° 0 mm 1 m/s 717 mmHg 79%
    14:00 +9°C° 0 mm 1 m/s 717 mmHg 82%
    15:00 +8°C° 0 mm 1 m/s 717 mmHg 86%
    16:00 +8°C° 0 mm 1 m/s 717 mmHg 89%
    17:00 +7°C° 0 mm 1 m/s 717 mmHg 90%
    18:00 +6°C° 0 mm 1 m/s 717 mmHg 91%
    19:00 +6°C° 0 mm 1 m/s 717 mmHg 92%
    20:00 +5°C° 0 mm 1 m/s 717 mmHg 92%
    21:00 +5°C° 0 mm 1 m/s 717 mmHg 92%
    22:00 +5°C° 0 mm 1 m/s 717 mmHg 92%
    23:00 +5°C° 0 mm 1 m/s 717 mmHg 91%

    24 Novembro, Sábado

    Tempo Temperatura Precipitação Vento Pressão Humidade
    00:00 +5°C° 0 mm 1 m/s 716 mmHg 89%
    01:00 +5°C° 0 mm 1 m/s 716 mmHg 88%
    02:00 +5°C° 0 mm 1 m/s 716 mmHg 87%
    03:00 +4°C° 0 mm 2 m/s 716 mmHg 86%
    04:00 +5°C° 0 mm 2 m/s 716 mmHg 85%
    05:00 +5°C° 0 mm 2 m/s 715 mmHg 85%
    06:00 +5°C° 0 mm 2 m/s 715 mmHg 84%
    07:00 +5°C° 0 mm 2 m/s 715 mmHg 84%
    08:00 +5°C° 0 mm 3 m/s 715 mmHg 82%
    09:00 +7°C° 0 mm 3 m/s 715 mmHg 80%
    10:00 +9°C° 0 mm 3 m/s 716 mmHg 78%
    11:00 +9°C° 0 mm 3 m/s 715 mmHg 79%
    12:00 +10°C° 0 mm 3 m/s 715 mmHg 80%
    13:00 +10°C° 0 mm 4 m/s 714 mmHg 81%
    14:00 +10°C° 0 mm 4 m/s 714 mmHg 83%
    15:00 +10°C° 0 mm 4 m/s 714 mmHg 86%
    16:00 +8°C° 0 mm 4 m/s 714 mmHg 89%
    17:00 +8°C° 0 mm 4 m/s 714 mmHg 90%
    18:00 +7°C° 0 mm 4 m/s 714 mmHg 91%
    19:00 +6°C° 0 mm 4 m/s 714 mmHg 93%
    20:00 +7°C° 0 mm 4 m/s 714 mmHg 92%
    21:00 +7°C° 0 mm 4 m/s 714 mmHg 91%
    22:00 +7°C° 0 mm 4 m/s 714 mmHg 90%
    23:00 +7°C° 0 mm 4 m/s 714 mmHg 89%
    Mostrar mais